,,,PA_Meas_PMT16A,,PR_Meas_QMR101_102,,RH_Meas_QMH101,,SR_Meas_QMS101,,TA_Meas_QMH101,,GenWind,,GenWind,
date,time,status,PA,status,PR,status,RH,status,SR,status,TA,status,DirAvg,status,SpdAvg,
2009-07-10, 00:00:04,VALID,1010.59,VALID,0,VALID,92.8054,VALID,0.105969,VALID,23.4194,VALID,145,VALID,0.119141,
2009-07-10, 00:01:04,VALID,1010.58,VALID,0,VALID,92.813,VALID,0,VALID,23.4194,VALID,145,VALID,0,
2009-07-10, 00:02:04,VALID,1010.56,VALID,0,VALID,92.8054,VALID,0.105969,VALID,23.4389,VALID,145,VALID,0,
2009-07-10, 00:03:04,VALID,1010.56,VALID,0,VALID,92.8359,VALID,0,VALID,23.4584,VALID,145,VALID,0,
2009-07-10, 00:04:04,VALID,1010.57,VALID,0,VALID,92.8436,VALID,0,VALID,23.4584,VALID,145,VALID,0,
2009-07-10, 00:05:04,VALID,1010.56,VALID,0,VALID,92.8436,VALID,0.105969,VALID,23.4584,VALID,145,VALID,0,
2009-07-10, 00:06:04,VALID,1010.55,VALID,0,VALID,92.8741,VALID,0.105969,VALID,23.4974,VALID,145,VALID,0,
2009-07-10, 00:07:04,VALID,1010.53,VALID,0,VALID,92.8817,VALID,0,VALID,23.4974,VALID,145,VALID,0,
2009-07-10, 00:08:04,VALID,1010.5,VALID,0,VALID,92.8817,VALID,0,VALID,23.5186,VALID,145,VALID,0,
2009-07-10, 00:09:04,VALID,1010.47,VALID,0,VALID,92.8893,VALID,0.105969,VALID,23.4974,VALID,145,VALID,0,
2009-07-10, 00:10:04,VALID,1010.43,VALID,0,VALID,92.8969,VALID,0.105969,VALID,23.4974,VALID,145,VALID,0,
2009-07-10, 00:11:04,VALID,1010.39,VALID,0,VALID,92.8893,VALID,0,VALID,23.4779,VALID,145,VALID,0,
2009-07-10, 00:12:04,VALID,1010.37,VALID,0,VALID,92.8969,VALID,0.105969,VALID,23.4584,VALID,145,VALID,0,
2009-07-10, 00:13:04,VALID,1010.34,VALID,0,VALID,92.9046,VALID,0.105969,VALID,23.4584,VALID,145,VALID,0,
2009-07-10, 00:14:04,VALID,1010.3,VALID,0,VALID,92.9122,VALID,0,VALID,23.4389,VALID,145,VALID,0,
2009-07-10, 00:15:04,VALID,1010.26,VALID,0,VALID,92.8969,VALID,0.105969,VALID,23.4389,VALID,145,VALID,0,
2009-07-10, 00:16:04,VALID,1010.22,VALID,0,VALID,92.8969,VALID,0.105969,VALID,23.4194,VALID,145,VALID,0,
2009-07-10, 00:17:04,VALID,1010.18,VALID,0,VALID,92.9046,VALID,0,VALID,23.4212,VALID,145,VALID,0,
2009-07-10, 00:18:04,VALID,1010.15,VALID,0,VALID,92.9046,VALID,0.105969,VALID,23.3805,VALID,145,VALID,0,
2009-07-10, 00:19:04,VALID,1010.13,VALID,0,VALID,92.9122,VALID,0,VALID,23.4,VALID,145,VALID,0,
2009-07-10, 00:20:04,VALID,1010.11,VALID,0,VALID,92.8969,VALID,0,VALID,23.3805,VALID,145,VALID,0,
2009-07-10, 00:21:04,VALID,1010.08,VALID,0,VALID,92.9274,VALID,0,VALID,23.361,VALID,145,VALID,0,
2009-07-10, 00:22:04,VALID,1010.07,VALID,0,VALID,92.9198,VALID,0.105969,VALID,23.361,VALID,34,VALID,0,
2009-07-10, 00:23:04,VALID,1010.06,VALID,0,VALID,92.9198,VALID,0.105969,VALID,23.3805,VALID,30,VALID,0.321094,
2009-07-10, 00:24:04,VALID,1010.01,VALID,0,VALID,92.9122,VALID,0.105969,VALID,23.361,VALID,30,VALID,0.201953,
2009-07-10, 00:25:04,VALID,1010.01,VALID,0,VALID,92.9351,VALID,0.105969,VALID,23.3415,VALID,30,VALID,0.107813,
2009-07-10, 00:26:04,VALID,1009.96,VALID,0,VALID,92.9274,VALID,0,VALID,23.322,VALID,30,VALID,0,
2009-07-10, 00:27:04,VALID,1009.93,VALID,0,VALID,92.9274,VALID,0,VALID,23.3026,VALID,30,VALID,0,
2009-07-10, 00:28:04,VALID,1009.93,VALID,0,VALID,92.9351,VALID,0,VALID,23.3026,VALID,30,VALID,0,
2009-07-10, 00:29:04,VALID,1009.9,VALID,0,VALID,92.9351,VALID,0.105969,VALID,23.2636,VALID,30,VALID,0,
2009-07-10, 00:30:04,VALID,1009.89,VALID,0,VALID,92.9351,VALID,0,VALID,23.2441,VALID,30,VALID,0,
2009-07-10, 00:31:04,VALID,1009.91,VALID,0,VALID,92.9351,VALID,0,VALID,23.2246,VALID,30,VALID,0,
2009-07-10, 00:32:04,VALID,1009.92,VALID,0,VALID,92.9274,VALID,0,VALID,23.2246,VALID,30,VALID,0,
2009-07-10, 00:33:04,VALID,1009.93,VALID,0,VALID,92.9274,VALID,0.105969,VALID,23.1857,VALID,30,VALID,0,
2009-07-10, 00:34:04,VALID,1009.92,VALID,0,VALID,92.9351,VALID,0.105969,VALID,23.1857,VALID,30,VALID,0.285156,
2009-07-10, 00:35:04,VALID,1009.88,VALID,0,VALID,92.9274,VALID,0,VALID,23.1839,VALID,30,VALID,0.230469,
2009-07-10, 00:36:04,VALID,1009.85,VALID,0,VALID,92.9351,VALID,0,VALID,23.2051,VALID,30,VALID,0.360156,
2009-07-10, 00:37:04,VALID,1009.82,VALID,0,VALID,92.9503,VALID,0,VALID,23.2051,VALID,30,VALID,0.348828,
2009-07-10, 00:38:04,VALID,1009.8,VALID,0,VALID,92.9427,VALID,0,VALID,23.1857,VALID,30,VALID,0.28125,
2009-07-10, 00:39:04,VALID,1009.79,VALID,0,VALID,92.9732,VALID,0,VALID,23.1857,VALID,30,VALID,0.290234,
2009-07-10, 00:40:04,VALID,1009.8,VALID,0,VALID,92.9503,VALID,0,VALID,23.1857,VALID,30,VALID,0,
2009-07-10, 00:41:04,VALID,1009.79,VALID,0,VALID,92.9732,VALID,0,VALID,23.1467,VALID,30,VALID,0,
2009-07-10, 00:42:04,VALID,1009.78,VALID,0,VALID,92.9656,VALID,0,VALID,23.1272,VALID,30,VALID,0,
2009-07-10, 00:43:04,VALID,1009.77,VALID,0,VALID,92.9503,VALID,0,VALID,23.1485,VALID,30,VALID,0,
2009-07-10, 00:44:04,VALID,1009.76,VALID,0,VALID,92.9579,VALID,0,VALID,23.1272,VALID,30,VALID,0,
2009-07-10, 00:45:04,VALID,1009.76,VALID,0,VALID,92.9579,VALID,0,VALID,23.1467,VALID,30,VALID,0,
2009-07-10, 00:46:04,VALID,1009.77,VALID,0,VALID,92.9579,VALID,0,VALID,23.1662,VALID,30,VALID,0,
2009-07-10, 00:47:04,VALID,1009.78,VALID,0,VALID,92.9656,VALID,0.105969,VALID,23.1467,VALID,30,VALID,0,
2009-07-10, 00:48:04,VALID,1009.77,VALID,0,VALID,92.9732,VALID,0,VALID,23.1467,VALID,30,VALID,0,
2009-07-10, 00:49:04,VALID,1009.79,VALID,0,VALID,92.9656,VALID,0,VALID,23.1467,VALID,30,VALID,0,
2009-07-10, 00:50:04,VALID,1009.81,VALID,0,VALID,92.9884,VALID,0,VALID,23.1467,VALID,30,VALID,0,
2009-07-10, 00:51:04,VALID,1009.81,VALID,0,VALID,92.9808,VALID,0.105969,VALID,23.1662,VALID,30,VALID,0,
2009-07-10, 00:52:04,VALID,1009.81,VALID,0,VALID,92.9884,VALID,0,VALID,23.1679,VALID,30,VALID,0,
2009-07-10, 00:53:04,VALID,1009.85,VALID,0,VALID,92.9884,VALID,0,VALID,23.1467,VALID,30,VALID,0,
2009-07-10, 00:54:04,VALID,1009.82,VALID,0,VALID,92.9884,VALID,0.105969,VALID,23.2051,VALID,54,VALID,0.454688,
2009-07-10, 00:55:04,VALID,1009.84,VALID,0,VALID,92.9808,VALID,0,VALID,23.1857,VALID,54,VALID,0.224219,
2009-07-10, 00:56:04,VALID,1009.81,VALID,0,VALID,92.9961,VALID,0,VALID,23.1857,VALID,54,VALID,0.438281,
2009-07-10, 00:57:04,VALID,1009.82,VALID,0,VALID,92.9961,VALID,0,VALID,23.2051,VALID,54,VALID,0.0476562,
2009-07-10, 00:58:04,VALID,1009.79,VALID,0,VALID,92.9961,VALID,0.105969,VALID,23.1857,VALID,54,VALID,0,
2009-07-10, 00:59:04,VALID,1009.77,VALID,0,VALID,93.0113,VALID,0,VALID,23.1857,VALID,54,VALID,0,
2009-07-10, 01:00:04,VALID,1009.76,VALID,0,VALID,93.0113,VALID,0.105969,VALID,23.1662,VALID,54,VALID,0.244531,
2009-07-10, 01:01:04,VALID,1009.69,VALID,0,VALID,93.0113,VALID,0,VALID,23.1679,VALID,54,VALID,0.185547,
2009-07-10, 01:02:04,VALID,1009.67,VALID,0,VALID,93.0037,VALID,0,VALID,23.1485,VALID,54,VALID,0.00585938,
2009-07-10, 01:03:04,VALID,1009.64,VALID,0,VALID,93.0189,VALID,0,VALID,23.1485,VALID,54,VALID,0,
2009-07-10, 01:04:04,VALID,1009.64,VALID,0,VALID,93.0189,VALID,0,VALID,23.1485,VALID,54,VALID,0,
2009-07-10, 01:05:04,VALID,1009.64,VALID,0,VALID,93.0037,VALID,0,VALID,23.1485,VALID,54,VALID,0,
2009-07-10, 01:06:04,VALID,1009.6,VALID,0,VALID,93.0266,VALID,0,VALID,23.1485,VALID,54,VALID,0,
2009-07-10, 01:07:04,VALID,1009.6,VALID,0,VALID,93.0113,VALID,0,VALID,23.129,VALID,54,VALID,0,
2009-07-10, 01:08:04,VALID,1009.58,VALID,0,VALID,93.0113,VALID,0,VALID,23.1485,VALID,54,VALID,0.312891,
2009-07-10, 01:09:04,VALID,1009.54,VALID,0,VALID,93.0113,VALID,0,VALID,23.1679,VALID,71,VALID,0.420703,
2009-07-10, 01:10:04,VALID,1009.55,VALID,0,VALID,92.9808,VALID,0,VALID,23.1874,VALID,132,VALID,0.538281,
2009-07-10, 01:11:04,VALID,1009.53,VALID,0,VALID,93.0037,VALID,0,VALID,23.2069,VALID,140,VALID,0.210156,
2009-07-10, 01:12:04,VALID,1009.52,VALID,0,VALID,92.9961,VALID,0,VALID,23.2282,VALID,140,VALID,0,
2009-07-10, 01:13:04,VALID,1009.49,VALID,0,VALID,93.0113,VALID,0,VALID,23.2282,VALID,140,VALID,0,
2009-07-10, 01:14:04,VALID,1009.48,VALID,0,VALID,93.0266,VALID,0,VALID,23.2264,VALID,140,VALID,0,
2009-07-10, 01:15:04,VALID,1009.44,VALID,0,VALID,93.0113,VALID,0,VALID,23.2459,VALID,140,VALID,0.0480469,
2009-07-10, 01:16:04,VALID,1009.45,VALID,0,VALID,93.0189,VALID,0,VALID,23.2441,VALID,140,VALID,0.195313,
2009-07-10, 01:17:04,VALID,1009.41,VALID,0,VALID,93.0342,VALID,0.105969,VALID,23.2636,VALID,140,VALID,0.269141,
2009-07-10, 01:18:04,VALID,1009.39,VALID,0,VALID,93.0342,VALID,0,VALID,23.2441,VALID,140,VALID,0.258203,
2009-07-10, 01:19:04,VALID,1009.34,VALID,0,VALID,93.0189,VALID,0,VALID,23.2654,VALID,140,VALID,0,
2009-07-10, 01:20:04,VALID,1009.36,VALID,0,VALID,93.0418,VALID,0,VALID,23.2246,VALID,140,VALID,0,
2009-07-10, 01:21:04,VALID,1009.32,VALID,0,VALID,93.0494,VALID,0.105969,VALID,23.2246,VALID,140,VALID,0,
2009-07-10, 01:22:04,VALID,1009.35,VALID,0,VALID,93.0494,VALID,0.105969,VALID,23.2441,VALID,140,VALID,0,
2009-07-10, 01:23:04,VALID,1009.36,VALID,0,VALID,93.0494,VALID,0.105969,VALID,23.2441,VALID,140,VALID,0,
2009-07-10, 01:24:04,VALID,1009.35,VALID,0,VALID,93.0571,VALID,0,VALID,23.2246,VALID,140,VALID,0,
2009-07-10, 01:25:04,VALID,1009.36,VALID,0,VALID,93.0571,VALID,0,VALID,23.2654,VALID,140,VALID,0,
2009-07-10, 01:26:04,VALID,1009.35,VALID,0,VALID,93.0647,VALID,0,VALID,23.2246,VALID,140,VALID,0,
2009-07-10, 01:27:04,VALID,1009.33,VALID,0,VALID,93.0571,VALID,0,VALID,23.2441,VALID,140,VALID,0,
2009-07-10, 01:28:04,VALID,1009.32,VALID,0,VALID,93.0571,VALID,0,VALID,23.2459,VALID,140,VALID,0,
2009-07-10, 01:29:04,VALID,1009.33,VALID,0,VALID,93.0571,VALID,0,VALID,23.2246,VALID,140,VALID,0,
2009-07-10, 01:30:04,VALID,1009.31,VALID,0,VALID,93.0876,VALID,0,VALID,23.2051,VALID,140,VALID,0,
2009-07-10, 01:31:04,VALID,1009.34,VALID,0,VALID,93.1105,VALID,0,VALID,23.1662,VALID,128,VALID,0,
2009-07-10, 01:32:04,VALID,1009.33,VALID,0,VALID,93.0876,VALID,0,VALID,23.1679,VALID,128,VALID,0,
2009-07-10, 01:33:04,VALID,1009.36,VALID,0,VALID,93.0876,VALID,0,VALID,23.1272,VALID,128,VALID,0,
2009-07-10, 01:34:04,VALID,1009.33,VALID,0,VALID,93.1028,VALID,0,VALID,23.1272,VALID,128,VALID,0,
2009-07-10, 01:35:04,VALID,1009.33,VALID,0,VALID,93.0876,VALID,0,VALID,23.1077,VALID,128,VALID,0,
2009-07-10, 01:36:04,VALID,1009.32,VALID,0,VALID,93.0799,VALID,0,VALID,23.1095,VALID,128,VALID,0,
2009-07-10, 01:37:04,VALID,1009.31,VALID,0,VALID,93.1028,VALID,0.105969,VALID,23.0883,VALID,128,VALID,0,
2009-07-10, 01:38:04,VALID,1009.32,VALID,0,VALID,93.1181,VALID,0,VALID,23.0688,VALID,128,VALID,0,
2009-07-10, 01:39:04,VALID,1009.33,VALID,0,VALID,93.1181,VALID,0,VALID,23.0493,VALID,128,VALID,0,
2009-07-10, 01:40:04,VALID,1009.33,VALID,0,VALID,93.1257,VALID,0.105969,VALID,23.0493,VALID,128,VALID,0,
2009-07-10, 01:41:04,VALID,1009.31,VALID,0,VALID,93.1105,VALID,0,VALID,23.0493,VALID,128,VALID,0,
2009-07-10, 01:42:04,VALID,1009.28,VALID,0,VALID,93.1105,VALID,0,VALID,23.0298,VALID,128,VALID,0,
2009-07-10, 01:43:04,VALID,1009.25,VALID,0,VALID,93.1105,VALID,0.105969,VALID,22.9696,VALID,128,VALID,0,
2009-07-10, 01:44:04,VALID,1009.22,VALID,0,VALID,93.1028,VALID,0.105969,VALID,22.9909,VALID,128,VALID,0,
2009-07-10, 01:45:04,VALID,1009.22,VALID,0,VALID,93.1105,VALID,0.105969,VALID,22.9909,VALID,128,VALID,0,
2009-07-10, 01:46:04,VALID,1009.23,VALID,0,VALID,93.1257,VALID,0,VALID,22.9714,VALID,128,VALID,0,
2009-07-10, 01:47:04,VALID,1009.22,VALID,0,VALID,93.1257,VALID,0,VALID,22.9714,VALID,128,VALID,0,
2009-07-10, 01:48:04,VALID,1009.23,VALID,0,VALID,93.1333,VALID,0,VALID,22.9519,VALID,128,VALID,0,
2009-07-10, 01:49:04,VALID,1009.25,VALID,0,VALID,93.1181,VALID,0,VALID,22.9731,VALID,128,VALID,0,
2009-07-10, 01:50:04,VALID,1009.26,VALID,0,VALID,93.0952,VALID,0,VALID,22.9714,VALID,128,VALID,0,
2009-07-10, 01:51:04,VALID,1009.29,VALID,0,VALID,93.1105,VALID,0,VALID,22.9714,VALID,128,VALID,0,
2009-07-10, 01:52:04,VALID,1009.31,VALID,0,VALID,93.0952,VALID,0,VALID,22.9909,VALID,128,VALID,0,
2009-07-10, 01:53:04,VALID,1009.3,VALID,0,VALID,93.1105,VALID,0,VALID,22.9714,VALID,128,VALID,0,
2009-07-10, 01:54:04,VALID,1009.28,VALID,0,VALID,93.1181,VALID,0,VALID,22.9714,VALID,128,VALID,0,
2009-07-10, 01:55:04,VALID,1009.27,VALID,0,VALID,93.141,VALID,0,VALID,22.9731,VALID,128,VALID,0,
2009-07-10, 01:56:04,VALID,1009.26,VALID,0,VALID,93.1181,VALID,0,VALID,22.9519,VALID,128,VALID,0,
2009-07-10, 01:57:04,VALID,1009.26,VALID,0,VALID,93.1486,VALID,0.105969,VALID,22.9324,VALID,128,VALID,0,
2009-07-10, 01:58:04,VALID,1009.23,VALID,0,VALID,93.1562,VALID,0,VALID,22.9129,VALID,128,VALID,0,
2009-07-10, 01:59:04,VALID,1009.25,VALID,0,VALID,93.1257,VALID,0,VALID,22.8935,VALID,128,VALID,0,
2009-07-10, 02:00:04,VALID,1009.26,VALID,0,VALID,93.1181,VALID,0,VALID,22.874,VALID,128,VALID,0,
2009-07-10, 02:01:04,VALID,1009.26,VALID,0,VALID,93.1562,VALID,0,VALID,22.874,VALID,128,VALID,0,
2009-07-10, 02:02:04,VALID,1009.24,VALID,0,VALID,93.1638,VALID,0,VALID,22.835,VALID,128,VALID,0,
2009-07-10, 02:03:04,VALID,1009.24,VALID,0,VALID,93.1562,VALID,0.105969,VALID,22.8155,VALID,128,VALID,0,
2009-07-10, 02:04:04,VALID,1009.23,VALID,0,VALID,93.1486,VALID,0,VALID,22.7961,VALID,128,VALID,0,
2009-07-10, 02:05:04,VALID,1009.2,VALID,0,VALID,93.1638,VALID,0,VALID,22.8173,VALID,128,VALID,0,
2009-07-10, 02:06:04,VALID,1009.2,VALID,0,VALID,93.1562,VALID,0,VALID,22.7766,VALID,128,VALID,0,
2009-07-10, 02:07:04,VALID,1009.22,VALID,0,VALID,93.1638,VALID,0.105969,VALID,22.7766,VALID,128,VALID,0,
2009-07-10, 02:08:04,VALID,1009.2,VALID,0,VALID,93.141,VALID,0,VALID,22.7961,VALID,128,VALID,0,
2009-07-10, 02:09:04,VALID,1009.19,VALID,0,VALID,93.1333,VALID,0,VALID,22.8155,VALID,128,VALID,0,
2009-07-10, 02:10:04,VALID,1009.17,VALID,0,VALID,93.1333,VALID,0.105969,VALID,22.8155,VALID,128,VALID,0,
2009-07-10, 02:11:04,VALID,1009.19,VALID,0,VALID,93.1333,VALID,0,VALID,22.7961,VALID,128,VALID,0,
2009-07-10, 02:12:04,VALID,1009.15,VALID,0,VALID,93.1333,VALID,0,VALID,22.8155,VALID,128,VALID,0,
2009-07-10, 02:13:04,VALID,1009.11,VALID,0,VALID,93.1333,VALID,0,VALID,22.8173,VALID,128,VALID,0,
2009-07-10, 02:14:04,VALID,1009.09,VALID,0,VALID,93.1638,VALID,0.105969,VALID,22.7766,VALID,128,VALID,0,
2009-07-10, 02:15:04,VALID,1009.07,VALID,0,VALID,93.1562,VALID,0,VALID,22.7766,VALID,128,VALID,0,
2009-07-10, 02:16:04,VALID,1009.05,VALID,0,VALID,93.1562,VALID,0,VALID,22.7588,VALID,128,VALID,0,
2009-07-10, 02:17:04,VALID,1009.02,VALID,0,VALID,93.1562,VALID,0.105969,VALID,22.7588,VALID,118,VALID,0,
2009-07-10, 02:18:04,VALID,1009,VALID,0,VALID,93.1562,VALID,0,VALID,22.7182,VALID,117,VALID,0,
2009-07-10, 02:19:04,VALID,1009,VALID,0,VALID,93.1638,VALID,0,VALID,22.7376,VALID,117,VALID,0,
2009-07-10, 02:20:04,VALID,1008.99,VALID,0,VALID,93.1638,VALID,0,VALID,22.6987,VALID,117,VALID,0,
2009-07-10, 02:21:04,VALID,1008.96,VALID,0,VALID,93.1791,VALID,0,VALID,22.7182,VALID,49,VALID,0,
2009-07-10, 02:22:04,VALID,1008.98,VALID,0,VALID,93.1486,VALID,0.105969,VALID,22.7394,VALID,49,VALID,0,
2009-07-10, 02:23:04,VALID,1008.95,VALID,0,VALID,93.1486,VALID,0,VALID,22.7182,VALID,49,VALID,0,
2009-07-10, 02:24:04,VALID,1008.97,VALID,0,VALID,93.1562,VALID,0,VALID,22.7182,VALID,47,VALID,0,
2009-07-10, 02:25:04,VALID,1008.96,VALID,0,VALID,93.1562,VALID,0,VALID,22.7394,VALID,47,VALID,0,
2009-07-10, 02:26:04,VALID,1008.96,VALID,0,VALID,93.1791,VALID,0,VALID,22.6987,VALID,47,VALID,0,
2009-07-10, 02:27:04,VALID,1008.96,VALID,0,VALID,93.1715,VALID,0,VALID,22.6987,VALID,47,VALID,0,
2009-07-10, 02:28:04,VALID,1008.94,VALID,0,VALID,93.1715,VALID,0.105969,VALID,22.6792,VALID,47,VALID,0,
2009-07-10, 02:29:04,VALID,1008.94,VALID,0,VALID,93.1791,VALID,0,VALID,22.7004,VALID,47,VALID,0,
2009-07-10, 02:30:04,VALID,1008.89,VALID,0,VALID,93.1638,VALID,0,VALID,22.6614,VALID,47,VALID,0,
2009-07-10, 02:31:04,VALID,1008.9,VALID,0,VALID,93.1867,VALID,0,VALID,22.6402,VALID,47,VALID,0,
2009-07-10, 02:32:04,VALID,1008.86,VALID,0,VALID,93.1715,VALID,0,VALID,22.6402,VALID,47,VALID,0,
2009-07-10, 02:33:04,VALID,1008.85,VALID,0,VALID,93.1943,VALID,0,VALID,22.6208,VALID,47,VALID,0,
2009-07-10, 02:34:04,VALID,1008.85,VALID,0,VALID,93.1791,VALID,0.105969,VALID,22.6208,VALID,47,VALID,0,
2009-07-10, 02:35:04,VALID,1008.82,VALID,0,VALID,93.1715,VALID,0,VALID,22.6208,VALID,47,VALID,0,
2009-07-10, 02:36:04,VALID,1008.79,VALID,0,VALID,93.1867,VALID,0.105969,VALID,22.6208,VALID,47,VALID,0,
2009-07-10, 02:37:04,VALID,1008.8,VALID,0,VALID,93.1943,VALID,0,VALID,22.6013,VALID,47,VALID,0,
2009-07-10, 02:38:04,VALID,1008.78,VALID,0,VALID,93.202,VALID,0,VALID,22.5818,VALID,47,VALID,0,
2009-07-10, 02:39:04,VALID,1008.72,VALID,0,VALID,93.202,VALID,0,VALID,22.5623,VALID,47,VALID,0,
2009-07-10, 02:40:04,VALID,1008.69,VALID,0,VALID,93.2096,VALID,0,VALID,22.5429,VALID,47,VALID,0,
2009-07-10, 02:41:04,VALID,1008.7,VALID,0,VALID,93.2096,VALID,0.105969,VALID,22.5429,VALID,47,VALID,0,
2009-07-10, 02:42:04,VALID,1008.67,VALID,0,VALID,93.1791,VALID,0.105969,VALID,22.5623,VALID,47,VALID,0,
2009-07-10, 02:43:04,VALID,1008.65,VALID,0,VALID,93.1791,VALID,0,VALID,22.5818,VALID,47,VALID,0,
2009-07-10, 02:44:04,VALID,1008.61,VALID,0,VALID,93.1791,VALID,0.105969,VALID,22.6013,VALID,56,VALID,0,
2009-07-10, 02:45:04,VALID,1008.6,VALID,0,VALID,93.1791,VALID,0.105969,VALID,22.6402,VALID,56,VALID,0,
2009-07-10, 02:46:04,VALID,1008.6,VALID,0,VALID,93.1715,VALID,0,VALID,22.6632,VALID,56,VALID,0,
2009-07-10, 02:47:04,VALID,1008.58,VALID,0,VALID,93.1715,VALID,0,VALID,22.6614,VALID,56,VALID,0,
2009-07-10, 02:48:04,VALID,1008.56,VALID,0,VALID,93.1562,VALID,0,VALID,22.6614,VALID,56,VALID,0,
2009-07-10, 02:49:04,VALID,1008.55,VALID,0,VALID,93.1943,VALID,0,VALID,22.6614,VALID,56,VALID,0,
2009-07-10, 02:50:04,VALID,1008.54,VALID,0,VALID,93.1715,VALID,0,VALID,22.6614,VALID,56,VALID,0,
2009-07-10, 02:51:04,VALID,1008.54,VALID,0,VALID,93.1715,VALID,0,VALID,22.6614,VALID,56,VALID,0,
2009-07-10, 02:52:04,VALID,1008.53,VALID,0,VALID,93.1791,VALID,0,VALID,22.6614,VALID,56,VALID,0,
2009-07-10, 02:53:04,VALID,1008.53,VALID,0,VALID,93.1715,VALID,0,VALID,22.642,VALID,56,VALID,0,
2009-07-10, 02:54:04,VALID,1008.56,VALID,0,VALID,93.1867,VALID,0,VALID,22.642,VALID,56,VALID,0,
2009-07-10, 02:55:04,VALID,1008.6,VALID,0,VALID,93.202,VALID,0,VALID,22.6225,VALID,56,VALID,0,
2009-07-10, 02:56:04,VALID,1008.57,VALID,0,VALID,93.1562,VALID,0,VALID,22.642,VALID,50,VALID,0,
2009-07-10, 02:57:04,VALID,1008.6,VALID,0,VALID,93.1791,VALID,0,VALID,22.6225,VALID,41,VALID,0.357031,
2009-07-10, 02:58:04,VALID,1008.59,VALID,0,VALID,93.1867,VALID,0,VALID,22.6225,VALID,41,VALID,0.294141,
2009-07-10, 02:59:04,VALID,1008.58,VALID,0,VALID,93.1943,VALID,0,VALID,22.603,VALID,41,VALID,0.338672,
2009-07-10, 03:00:04,VALID,1008.56,VALID,0,VALID,93.2248,VALID,0,VALID,22.5835,VALID,41,VALID,0.180078,
2009-07-10, 03:01:04,VALID,1008.52,VALID,0,VALID,93.2172,VALID,0.105969,VALID,22.5818,VALID,41,VALID,0,
2009-07-10, 03:02:04,VALID,1008.52,VALID,0,VALID,93.202,VALID,0,VALID,22.603,VALID,41,VALID,0,
2009-07-10, 03:03:04,VALID,1008.52,VALID,0,VALID,93.202,VALID,0,VALID,22.5818,VALID,41,VALID,0,
2009-07-10, 03:04:04,VALID,1008.52,VALID,0,VALID,93.2248,VALID,0.105969,VALID,22.5623,VALID,41,VALID,0,
2009-07-10, 03:05:04,VALID,1008.55,VALID,0,VALID,93.202,VALID,0.105969,VALID,22.5623,VALID,41,VALID,0,
2009-07-10, 03:06:04,VALID,1008.56,VALID,0,VALID,93.2096,VALID,0.105969,VALID,22.5818,VALID,41,VALID,0,
2009-07-10, 03:07:04,VALID,1008.57,VALID,0,VALID,93.1791,VALID,0.105969,VALID,22.5818,VALID,41,VALID,0,
2009-07-10, 03:08:04,VALID,1008.58,VALID,0,VALID,93.2172,VALID,0,VALID,22.5818,VALID,41,VALID,0,
2009-07-10, 03:09:04,VALID,1008.58,VALID,0,VALID,93.2096,VALID,0,VALID,22.5623,VALID,41,VALID,0,
2009-07-10, 03:10:04,VALID,1008.62,VALID,0,VALID,93.2248,VALID,0.105969,VALID,22.5429,VALID,41,VALID,0,
2009-07-10, 03:11:04,VALID,1008.61,VALID,0,VALID,93.2401,VALID,0,VALID,22.5234,VALID,41,VALID,0,
2009-07-10, 03:12:04,VALID,1008.63,VALID,0,VALID,93.2172,VALID,0,VALID,22.5039,VALID,14,VALID,0,
2009-07-10, 03:13:04,VALID,1008.62,VALID,0,VALID,93.2401,VALID,0.105969,VALID,22.5039,VALID,357,VALID,0.656641,
2009-07-10, 03:14:04,VALID,1008.67,VALID,0,VALID,93.2477,VALID,0,VALID,22.465,VALID,357,VALID,0.730859,
2009-07-10, 03:15:04,VALID,1008.68,VALID,0,VALID,93.2248,VALID,0,VALID,22.4667,VALID,357,VALID,0.785156,
2009-07-10, 03:16:04,VALID,1008.72,VALID,0,VALID,93.2477,VALID,0.105969,VALID,22.465,VALID,357,VALID,0.590234,
2009-07-10, 03:17:04,VALID,1008.71,VALID,0,VALID,93.2248,VALID,0.105969,VALID,22.465,VALID,355,VALID,0.30625,
2009-07-10, 03:18:04,VALID,1008.7,VALID,0,VALID,93.2248,VALID,0,VALID,22.465,VALID,355,VALID,0,
2009-07-10, 03:19:04,VALID,1008.7,VALID,0,VALID,93.2325,VALID,0.105969,VALID,22.4455,VALID,355,VALID,0,
2009-07-10, 03:20:04,VALID,1008.71,VALID,0,VALID,93.2248,VALID,0,VALID,22.426,VALID,355,VALID,0.145313,
2009-07-10, 03:21:04,VALID,1008.71,VALID,0,VALID,93.2477,VALID,0.105969,VALID,22.426,VALID,355,VALID,0.0722656,
2009-07-10, 03:22:04,VALID,1008.74,VALID,0,VALID,93.2477,VALID,0,VALID,22.4065,VALID,355,VALID,0,
2009-07-10, 03:23:04,VALID,1008.74,VALID,0,VALID,93.2553,VALID,0.105969,VALID,22.4065,VALID,355,VALID,0,
2009-07-10, 03:24:04,VALID,1008.75,VALID,0,VALID,93.2553,VALID,0.105969,VALID,22.387,VALID,355,VALID,0,
2009-07-10, 03:25:04,VALID,1008.75,VALID,0,VALID,93.2401,VALID,0.105969,VALID,22.3676,VALID,355,VALID,0,
2009-07-10, 03:26:04,VALID,1008.76,VALID,0,VALID,93.2477,VALID,0.105969,VALID,22.3676,VALID,355,VALID,0.286719,
2009-07-10, 03:27:04,VALID,1008.78,VALID,0,VALID,93.263,VALID,0.105969,VALID,22.3676,VALID,355,VALID,0,
2009-07-10, 03:28:04,VALID,1008.77,VALID,0,VALID,93.2325,VALID,0.105969,VALID,22.3693,VALID,355,VALID,0,
2009-07-10, 03:29:04,VALID,1008.81,VALID,0,VALID,93.2325,VALID,0,VALID,22.3481,VALID,355,VALID,0,
2009-07-10, 03:30:04,VALID,1008.8,VALID,0,VALID,93.2325,VALID,0,VALID,22.3481,VALID,355,VALID,0.0421875,
2009-07-10, 03:31:04,VALID,1008.79,VALID,0,VALID,93.2477,VALID,0.105969,VALID,22.3286,VALID,355,VALID,0,
2009-07-10, 03:32:04,VALID,1008.81,VALID,0,VALID,93.2325,VALID,0.105969,VALID,22.3481,VALID,355,VALID,0,
2009-07-10, 03:33:04,VALID,1008.81,VALID,0,VALID,93.2325,VALID,0.105969,VALID,22.3481,VALID,355,VALID,0,
2009-07-10, 03:34:04,VALID,1008.78,VALID,0,VALID,93.2553,VALID,0,VALID,22.3286,VALID,39,VALID,0.391016,
2009-07-10, 03:35:04,VALID,1008.81,VALID,0,VALID,93.2325,VALID,0.105969,VALID,22.3481,VALID,66,VALID,0.376172,
2009-07-10, 03:36:04,VALID,1008.8,VALID,0,VALID,93.2248,VALID,0.105969,VALID,22.3481,VALID,66,VALID,0.26875,
2009-07-10, 03:37:04,VALID,1008.8,VALID,0,VALID,93.2401,VALID,0.105969,VALID,22.3269,VALID,64,VALID,0.445313,
2009-07-10, 03:38:04,VALID,1008.84,VALID,0,VALID,93.2401,VALID,0.105969,VALID,22.3481,VALID,57,VALID,0.187109,
2009-07-10, 03:39:04,VALID,1008.85,VALID,0,VALID,93.2477,VALID,0.105969,VALID,22.3481,VALID,57,VALID,0.253906,
2009-07-10, 03:40:04,VALID,1008.84,VALID,0,VALID,93.2477,VALID,0.105969,VALID,22.3074,VALID,57,VALID,0,
2009-07-10, 03:41:04,VALID,1008.83,VALID,0,VALID,93.2325,VALID,0,VALID,22.3286,VALID,57,VALID,0,
2009-07-10, 03:42:04,VALID,1008.84,VALID,0,VALID,93.2401,VALID,0.105969,VALID,22.3091,VALID,57,VALID,0,
2009-07-10, 03:43:04,VALID,1008.83,VALID,0,VALID,93.2401,VALID,0,VALID,22.2897,VALID,79,VALID,0.726563,
2009-07-10, 03:44:04,VALID,1008.82,VALID,0,VALID,93.2706,VALID,0.105969,VALID,22.2702,VALID,79,VALID,0.477344,
2009-07-10, 03:45:04,VALID,1008.85,VALID,0,VALID,93.2401,VALID,0,VALID,22.2702,VALID,55,VALID,0.280078,
2009-07-10, 03:46:04,VALID,1008.9,VALID,0,VALID,93.2401,VALID,0,VALID,22.2719,VALID,53,VALID,0.203906,
2009-07-10, 03:47:04,VALID,1008.93,VALID,0,VALID,93.2477,VALID,0,VALID,22.2524,VALID,53,VALID,0,
2009-07-10, 03:48:04,VALID,1008.95,VALID,0,VALID,93.2706,VALID,0,VALID,22.2329,VALID,32,VALID,0.343359,
2009-07-10, 03:49:04,VALID,1008.94,VALID,0,VALID,93.2553,VALID,0,VALID,22.2118,VALID,68,VALID,0.322266,
2009-07-10, 03:50:04,VALID,1008.94,VALID,0,VALID,93.2553,VALID,0,VALID,22.2134,VALID,73,VALID,0.0273438,
2009-07-10, 03:51:04,VALID,1008.93,VALID,0,VALID,93.263,VALID,0,VALID,22.2134,VALID,73,VALID,0,
2009-07-10, 03:52:04,VALID,1008.92,VALID,0,VALID,93.2706,VALID,0,VALID,22.194,VALID,73,VALID,0,